| time (UTC) | temp C | wind direction | speed KPH | gust KPH | rain 1hr cm | rain 24hr cm | rain mn cm | humidity % | barometer mb |
| 20260506145148 | 12 | 41 | 9.7 | 19.3 | 0.00 | 0.00 | 0.00 | 66 | 1013.7 |
| 20260506144645 | 12 | 353 | 4.8 | 6.4 | 0.00 | 0.00 | 0.00 | 68 | 1013.7 |
| 20260506144148 | 12 | 52 | 3.2 | 6.4 | 0.00 | 0.00 | 0.00 | 72 | 1013.7 |
| 20260506143641 | 12 | 39 | 6.4 | 8.0 | 0.00 | 0.00 | 0.00 | 72 | 1013.7 |
| 20260506142133 | 12 | 92 | 3.2 | 3.2 | 0.00 | 0.00 | 0.00 | 75 | 1013.7 |
| 20260506141630 | 11 | 47 | 6.4 | 8.0 | 0.00 | 0.00 | 0.00 | 75 | 1013.7 |
| 20260506141128 | 11 | 9 | 9.7 | 9.7 | 0.00 | 0.00 | 0.00 | 78 | 1013.7 |
| 20260506140626 | 11 | 53 | 12.9 | 12.9 | 0.00 | 0.00 | 0.00 | 78 | 1013.7 |
| 20260506140124 | 12 | 44 | 6.4 | 9.7 | 0.00 | 0.00 | 0.00 | 77 | 1013.7 |
| 20260506135622 | 12 | 53 | 6.4 | 14.5 | 0.00 | 0.00 | 0.00 | 75 | 1013.7 |
| 20260506135119 | 12 | 359 | 3.2 | 6.4 | 0.00 | 0.00 | 0.00 | 75 | 1013.7 |
| 20260506134617 | 12 | 342 | 4.8 | 8.0 | 0.00 | 0.00 | 0.00 | 75 | 1013.7 |
| 20260506134114 | 11 | 0 | 4.8 | 11.3 | 0.00 | 0.00 | 0.00 | 76 | 1013.7 |
| 20260506133613 | 11 | 24 | 17.7 | 17.7 | 0.00 | 0.00 | 0.00 | 75 | 1013.7 |
| 20260506133110 | 12 | 31 | 20.9 | 22.5 | 0.00 | 0.00 | 0.00 | 73 | 1013.7 |
| 20260506132608 | 12 | 45 | 6.4 | 9.7 | 0.00 | 0.00 | 0.00 | 73 | 1013.7 |
| 20260506132105 | 12 | 39 | 8.0 | 9.7 | 0.00 | 0.00 | 0.00 | 73 | 1013.7 |
| 20260506131603 | 12 | 50 | 4.8 | 9.7 | 0.00 | 0.00 | 0.00 | 73 | 1013.7 |
| 20260506131101 | 12 | 26 | 16.1 | 19.3 | 0.00 | 0.00 | 0.00 | 73 | 1013.7 |
| 20260506130055 | 12 | 1 | 14.5 | 14.5 | 0.00 | 0.00 | 0.00 | 73 | 1013.7 |
| 20260506125553 | 11 | 7 | 16.1 | 16.1 | 0.00 | 0.00 | 0.00 | 74 | 1013.7 |
| 20260506125050 | 12 | 0 | 4.8 | 4.8 | 0.00 | 0.00 | 0.00 | 76 | 1013.7 |
| 20260506124547 | 11 | 330 | 8.0 | 11.3 | 0.00 | 0.00 | 0.00 | 77 | 1013.7 |
| 20260506123543 | 11 | 20 | 12.9 | 19.3 | 0.00 | 0.00 | 0.00 | 79 | 1013.7 |
| 20260506123040 | 10 | 22 | 9.7 | 11.3 | 0.00 | 0.00 | 0.00 | 79 | 1013.7 |
| 20260506122538 | 10 | 39 | 16.1 | 24.1 | 0.00 | 0.00 | 0.00 | 79 | 1013.7 |
| 20260506121533 | 11 | 38 | 11.3 | 11.3 | 0.00 | 0.00 | 0.00 | 81 | 1013.7 |
| 20260506121030 | 11 | 23 | 11.3 | 11.3 | 0.00 | 0.00 | 0.00 | 82 | 1013.7 |
| 20260506120528 | 11 | 22 | 3.2 | 4.8 | 0.00 | 0.00 | 0.00 | 83 | 1013.7 |
| 20260506120025 | 11 | 59 | 8.0 | 8.0 | 0.00 | 0.00 | 0.00 | 81 | 1013.4 |
| 20260506115523 | 11 | 66 | 6.4 | 9.7 | 0.00 | 0.00 | 0.00 | 79 | 1013.4 |
| 20260506115021 | 11 | 68 | 9.7 | 12.9 | 0.00 | 0.00 | 0.00 | 78 | 1013.4 |
| 20260506114519 | 11 | 61 | 6.4 | 6.4 | 0.00 | 0.00 | 0.00 | 78 | 1013.4 |
| 20260506114016 | 11 | 82 | 11.3 | 11.3 | 0.00 | 0.00 | 0.00 | 79 | 1013.4 |
| 20260506113514 | 11 | 348 | 9.7 | 9.7 | 0.00 | 0.00 | 0.00 | 78 | 1013.4 |
| 20260506113011 | 11 | 33 | 11.3 | 19.3 | 0.00 | 0.00 | 0.00 | 79 | 1013.4 |
| 20260506112509 | 11 | 14 | 8.0 | 11.3 | 0.00 | 0.00 | 0.00 | 81 | 1013.4 |
| 20260506112007 | 11 | 33 | 12.9 | 12.9 | 0.00 | 0.00 | 0.00 | 81 | 1013.4 |
| 20260506111504 | 11 | 47 | 6.4 | 8.0 | 0.00 | 0.00 | 0.00 | 81 | 1013.4 |
| 20260506111001 | 11 | 38 | 8.0 | 9.7 | 0.00 | 0.00 | 0.00 | 80 | 1013.4 |
| 20260506105956 | 11 | 47 | 9.7 | 14.5 | 0.00 | 0.00 | 0.00 | 78 | 1013.4 |
| 20260506104952 | 11 | 333 | 12.9 | 19.3 | 0.00 | 0.00 | 0.00 | 79 | 1013.4 |
| 20260506104449 | 11 | 30 | 14.5 | 14.5 | 0.00 | 0.00 | 0.00 | 78 | 1013.4 |
| 20260506103947 | 11 | 11 | 3.2 | 9.7 | 0.00 | 0.00 | 0.00 | 80 | 1013.4 |
| 20260506103445 | 11 | 66 | 9.7 | 16.1 | 0.00 | 0.00 | 0.00 | 80 | 1013.4 |
| 20260506102440 | 10 | 23 | 17.7 | 24.1 | 0.00 | 0.00 | 0.00 | 80 | 1013.4 |
| 20260506101938 | 10 | 64 | 17.7 | 17.7 | 0.00 | 0.00 | 0.00 | 80 | 1013.4 |
| 20260506101435 | 10 | 19 | 11.3 | 16.1 | 0.00 | 0.00 | 0.00 | 79 | 1013.4 |
| 20260506100932 | 11 | 30 | 6.4 | 9.7 | 0.00 | 0.00 | 0.00 | 80 | 1013.4 |
| 20260506100430 | 10 | 23 | 6.4 | 11.3 | 0.00 | 0.00 | 0.00 | 81 | 1013.4 |
| 20260506095927 | 10 | 27 | 11.3 | 11.3 | 0.00 | 0.00 | 0.00 | 81 | 1013.4 |
| 20260506095425 | 10 | 1 | 17.7 | 17.7 | 0.00 | 0.00 | 0.00 | 80 | 1013.4 |
| 20260506094922 | 10 | 42 | 9.7 | 14.5 | 0.00 | 0.00 | 0.00 | 80 | 1013.4 |
| 20260506094420 | 10 | 345 | 14.5 | 17.7 | 0.00 | 0.00 | 0.00 | 80 | 1013.4 |
| 20260506093415 | 11 | 22 | 6.4 | 9.7 | 0.00 | 0.00 | 0.00 | 80 | 1013.0 |
| 20260506092913 | 11 | 66 | 9.7 | 17.7 | 0.00 | 0.00 | 0.00 | 79 | 1013.0 |
| 20260506092410 | 11 | 17 | 8.0 | 11.3 | 0.00 | 0.00 | 0.00 | 79 | 1013.0 |
| 20260506091908 | 10 | 18 | 19.3 | 22.5 | 0.00 | 0.00 | 0.00 | 78 | 1013.0 |
| 20260506091405 | 11 | 31 | 19.3 | 25.7 | 0.00 | 0.00 | 0.00 | 78 | 1013.0 |
| 20260506090904 | 11 | 5 | 4.8 | 9.7 | 0.00 | 0.00 | 0.00 | 78 | 1013.0 |
| 20260506090401 | 11 | 304 | 3.2 | 16.1 | 0.00 | 0.00 | 0.00 | 78 | 1013.0 |
| 20260506085859 | 11 | 47 | 6.4 | 6.4 | 0.00 | 0.00 | 0.00 | 79 | 1012.7 |
| 20260506084853 | 10 | 15 | 9.7 | 14.5 | 0.00 | 0.00 | 0.00 | 79 | 1013.0 |
| 20260506083848 | 10 | 22 | 6.4 | 11.3 | 0.00 | 0.00 | 0.00 | 80 | 1012.7 |
| 20260506083346 | 10 | 80 | 9.7 | 20.9 | 0.00 | 0.00 | 0.00 | 79 | 1012.7 |
| 20260506082844 | 10 | 19 | 8.0 | 12.9 | 0.00 | 0.00 | 0.00 | 79 | 1012.7 |
| 20260506082341 | 10 | 22 | 14.5 | 17.7 | 0.00 | 0.00 | 0.00 | 80 | 1012.7 |
| 20260506081839 | 10 | 8 | 12.9 | 17.7 | 0.00 | 0.00 | 0.00 | 80 | 1012.7 |
| 20260506080834 | 10 | 51 | 9.7 | 17.7 | 0.00 | 0.00 | 0.00 | 79 | 1012.7 |
| 20260506080331 | 10 | 21 | 12.9 | 12.9 | 0.00 | 0.00 | 0.00 | 79 | 1012.3 |
| 20260506073317 | 10 | 32 | 14.5 | 17.7 | 0.00 | 0.00 | 0.00 | 79 | 1012.3 |
| 20260506072313 | 10 | 33 | 4.8 | 9.7 | 0.00 | 0.00 | 0.00 | 81 | 1012.3 |
| 20260506071810 | 10 | 23 | 9.7 | 19.3 | 0.00 | 0.00 | 0.00 | 82 | 1012.3 |
| 20260506071307 | 10 | 2 | 4.8 | 8.0 | 0.00 | 0.00 | 0.00 | 82 | 1012.3 |
| 20260506070805 | 10 | 6 | 24.1 | 24.1 | 0.00 | 0.00 | 0.00 | 82 | 1012.3 |
| 20260506070302 | 10 | 19 | 17.7 | 17.7 | 0.00 | 0.00 | 0.00 | 81 | 1012.3 |
| 20260506062243 | 10 | 11 | 14.5 | 14.5 | 0.00 | 0.00 | 0.00 | 80 | 1012.0 |
| 20260506061741 | 10 | 56 | 11.3 | 14.5 | 0.00 | 0.00 | 0.00 | 81 | 1012.0 |
| 20260506061239 | 10 | 3 | 11.3 | 11.3 | 0.00 | 0.00 | 0.00 | 81 | 1012.0 |
| 20260506060736 | 10 | 29 | 9.7 | 14.5 | 0.00 | 0.00 | 0.00 | 81 | 1012.0 |
| 20260506060233 | 10 | 355 | 9.7 | 11.3 | 0.00 | 0.00 | 0.00 | 81 | 1012.0 |
| 20260506051209 | 8 | 19 | 11.3 | 14.5 | 0.00 | 0.00 | 0.00 | 82 | 1012.0 |
| 20260506050706 | 8 | 9 | 3.2 | 9.7 | 0.00 | 0.00 | 0.00 | 83 | 1012.0 |
| 20260506050204 | 8 | 43 | 6.4 | 9.7 | 0.00 | 0.00 | 0.00 | 83 | 1012.0 |
| 20260506044656 | 8 | 0 | 8.0 | 9.7 | 0.00 | 0.00 | 0.00 | 84 | 1012.3 |
| 20260506044154 | 8 | 9 | 3.2 | 4.8 | 0.00 | 0.00 | 0.00 | 84 | 1012.3 |
| 20260506043651 | 8 | 45 | 6.4 | 9.7 | 0.00 | 0.00 | 0.00 | 83 | 1012.3 |
| 20260506043148 | 8 | 62 | 9.7 | 11.3 | 0.00 | 0.00 | 0.00 | 83 | 1012.3 |
| 20260506042647 | 8 | 35 | 9.7 | 11.3 | 0.00 | 0.00 | 0.00 | 82 | 1012.3 |
| 20260506042144 | 8 | 0 | 6.4 | 11.3 | 0.00 | 0.00 | 0.00 | 82 | 1012.3 |
| 20260506041642 | 8 | 49 | 6.4 | 6.4 | 0.00 | 0.00 | 0.00 | 81 | 1012.3 |
| 20260506041139 | 8 | 52 | 6.4 | 9.7 | 0.00 | 0.00 | 0.00 | 81 | 1012.3 |
| 20260506040135 | 8 | 123 | 14.5 | 14.5 | 0.00 | 0.00 | 0.00 | 80 | 1012.3 |
| 20260506035632 | 8 | 8 | 14.5 | 14.5 | 0.00 | 0.00 | 0.00 | 81 | 1012.3 |
| 20260506035130 | 8 | 18 | 16.1 | 17.7 | 0.00 | 0.00 | 0.00 | 81 | 1012.3 |
| 20260506034627 | 10 | 74 | 3.2 | 9.7 | 0.00 | 0.00 | 0.00 | 82 | 1012.3 |
| 20260506034125 | 10 | 90 | 11.3 | 11.3 | 0.00 | 0.00 | 0.00 | 81 | 1012.3 |
| 20260506033622 | 10 | 45 | 9.7 | 14.5 | 0.00 | 0.00 | 0.00 | 81 | 1012.3 |
| 20260506033120 | 10 | 26 | 9.7 | 9.7 | 0.00 | 0.00 | 0.00 | 81 | 1012.3 |
| 20260506032617 | 10 | 10 | 4.8 | 6.4 | 0.00 | 0.00 | 0.00 | 80 | 1012.3 |
| 20260506031612 | 10 | 12 | 9.7 | 9.7 | 0.00 | 0.00 | 0.00 | 79 | 1012.3 |
| 20260506031110 | 10 | 35 | 6.4 | 14.5 | 0.00 | 0.00 | 0.00 | 78 | 1012.3 |
| 20260506030608 | 10 | 25 | 14.5 | 14.5 | 0.00 | 0.00 | 0.00 | 78 | 1012.3 |
| 20260506030105 | 10 | 14 | 11.3 | 11.3 | 0.00 | 0.00 | 0.00 | 78 | 1012.3 |
| 20260506025603 | 10 | 358 | 17.7 | 20.9 | 0.00 | 0.00 | 0.00 | 78 | 1012.3 |
| 20260506025100 | 10 | 68 | 14.5 | 14.5 | 0.00 | 0.00 | 0.00 | 79 | 1012.3 |
| 20260506024558 | 10 | 50 | 9.7 | 14.5 | 0.00 | 0.00 | 0.00 | 80 | 1012.3 |
| 20260506024055 | 10 | 332 | 9.7 | 11.3 | 0.00 | 0.00 | 0.00 | 80 | 1012.3 |
| 20260506023553 | 10 | 27 | 9.7 | 11.3 | 0.00 | 0.00 | 0.00 | 81 | 1012.3 |
| 20260506023050 | 10 | 67 | 6.4 | 9.7 | 0.00 | 0.00 | 0.00 | 82 | 1012.3 |
| 20260506022548 | 10 | 350 | 9.7 | 12.9 | 0.00 | 0.00 | 0.00 | 82 | 1012.3 |
| 20260506022046 | 10 | 40 | 9.7 | 14.5 | 0.00 | 0.00 | 0.00 | 82 | 1012.3 |
| 20260506021543 | 10 | 26 | 9.7 | 11.3 | 0.00 | 0.00 | 0.00 | 81 | 1012.3 |
| 20260506021042 | 10 | 26 | 6.4 | 14.5 | 0.00 | 0.00 | 0.00 | 82 | 1012.3 |
| 20260506020540 | 10 | 50 | 11.3 | 11.3 | 0.00 | 0.00 | 0.00 | 82 | 1012.3 |
| 20260506015033 | 10 | 26 | 12.9 | 19.3 | 0.00 | 0.00 | 0.00 | 83 | 1012.3 |
| 20260506014531 | 10 | 52 | 4.8 | 8.0 | 0.00 | 0.00 | 0.00 | 83 | 1012.3 |
| 20260506014028 | 10 | 58 | 9.7 | 11.3 | 0.00 | 0.00 | 0.00 | 83 | 1012.3 |
| 20260506013526 | 10 | 29 | 9.7 | 11.3 | 0.00 | 0.00 | 0.00 | 83 | 1012.3 |
| 20260506013023 | 10 | 69 | 4.8 | 9.7 | 0.00 | 0.00 | 0.00 | 83 | 1012.3 |
| 20260506012520 | 10 | 9 | 11.3 | 19.3 | 0.00 | 0.00 | 0.00 | 83 | 1012.7 |
| 20260506012018 | 10 | 36 | 14.5 | 14.5 | 0.00 | 0.00 | 0.00 | 84 | 1012.7 |
| 20260506011515 | 10 | 8 | 8.0 | 8.0 | 0.00 | 0.00 | 0.00 | 84 | 1012.7 |
| 20260506011013 | 10 | 14 | 3.2 | 6.4 | 0.00 | 0.00 | 0.00 | 85 | 1012.7 |
| 20260506010511 | 10 | 15 | 8.0 | 8.0 | 0.00 | 0.00 | 0.00 | 85 | 1012.7 |
| 20260506005506 | 10 | 8 | 6.4 | 12.9 | 0.00 | 0.00 | 0.00 | 85 | 1012.7 |
| 20260506005003 | 10 | 1 | 11.3 | 11.3 | 0.00 | 0.00 | 0.00 | 85 | 1012.7 |
| 20260506004501 | 10 | 16 | 11.3 | 14.5 | 0.00 | 0.00 | 0.00 | 85 | 1012.7 |
| 20260506003959 | 10 | 355 | 3.2 | 4.8 | 0.00 | 0.00 | 0.00 | 85 | 1012.7 |
| 20260506003456 | 10 | 31 | 4.8 | 9.7 | 0.00 | 0.00 | 0.00 | 85 | 1012.7 |
| 20260506002954 | 10 | 14 | 6.4 | 11.3 | 0.00 | 0.00 | 0.00 | 85 | 1012.7 |
| 20260506002451 | 8 | 42 | 11.3 | 11.3 | 0.00 | 0.00 | 0.00 | 86 | 1012.7 |
| 20260506001949 | 10 | 23 | 4.8 | 9.7 | 0.00 | 0.00 | 0.00 | 85 | 1012.7 |
| 20260506001447 | 10 | 34 | 11.3 | 11.3 | 0.00 | 0.00 | 0.00 | 85 | 1012.7 |
| 20260506000944 | 10 | 40 | 8.0 | 9.7 | 0.00 | 0.00 | 0.00 | 85 | 1012.7 |
| 20260506000442 | 10 | 31 | 4.8 | 6.4 | 0.00 | 0.00 | 0.00 | 85 | 1012.7 |
| 20260505235940 | 10 | 8 | 9.7 | 9.7 | 0.00 | 0.00 | 0.00 | 85 | 1012.7 |
| 20260505235437 | 10 | 45 | 3.2 | 4.8 | 0.00 | 0.00 | 0.00 | 85 | 1012.7 |
| 20260505234934 | 10 | 63 | 6.4 | 9.7 | 0.00 | 0.00 | 0.00 | 85 | 1012.7 |
| 20260505234432 | 10 | 66 | 9.7 | 12.9 | 0.00 | 0.00 | 0.00 | 84 | 1012.7 |
| 20260505233930 | 10 | 33 | 9.7 | 12.9 | 0.00 | 0.00 | 0.00 | 84 | 1012.7 |
| 20260505233428 | 10 | 29 | 11.3 | 11.3 | 0.00 | 0.00 | 0.00 | 84 | 1012.7 |
| 20260505232925 | 10 | 52 | 4.8 | 9.7 | 0.00 | 0.00 | 0.00 | 84 | 1012.7 |
| 20260505232423 | 10 | 52 | 8.0 | 14.5 | 0.00 | 0.00 | 0.00 | 84 | 1012.7 |
| 20260505231920 | 10 | 37 | 4.8 | 8.0 | 0.00 | 0.00 | 0.00 | 84 | 1012.7 |
| 20260505230915 | 10 | 66 | 4.8 | 8.0 | 0.00 | 0.00 | 0.00 | 83 | 1012.7 |
| 20260505230413 | 10 | 49 | 6.4 | 11.3 | 0.00 | 0.00 | 0.00 | 82 | 1012.7 |
| 20260505225910 | 10 | 29 | 12.9 | 14.5 | 0.00 | 0.00 | 0.00 | 82 | 1012.7 |
| 20260505225408 | 10 | 38 | 6.4 | 8.0 | 0.00 | 0.00 | 0.00 | 82 | 1012.7 |
| 20260505224906 | 10 | 5 | 6.4 | 11.3 | 0.00 | 0.00 | 0.00 | 82 | 1012.7 |
| 20260505224404 | 10 | 5 | 9.7 | 11.3 | 0.00 | 0.00 | 0.00 | 81 | 1012.7 |
| 20260505223902 | 10 | 15 | 6.4 | 9.7 | 0.00 | 0.00 | 0.00 | 81 | 1012.7 |
| 20260505223359 | 10 | 28 | 11.3 | 11.3 | 0.00 | 0.00 | 0.00 | 81 | 1012.7 |
| 20260505222857 | 10 | 58 | 6.4 | 14.5 | 0.00 | 0.00 | 0.00 | 81 | 1012.7 |
| 20260505222354 | 10 | 60 | 11.3 | 17.7 | 0.00 | 0.00 | 0.00 | 81 | 1012.7 |
| 20260505221852 | 10 | 29 | 11.3 | 17.7 | 0.00 | 0.00 | 0.00 | 81 | 1012.7 |
| 20260505221350 | 10 | 73 | 6.4 | 9.7 | 0.00 | 0.00 | 0.00 | 81 | 1012.7 |
| 20260505220847 | 10 | 42 | 9.7 | 24.1 | 0.00 | 0.00 | 0.00 | 81 | 1012.7 |
| 20260505220344 | 10 | 93 | 9.7 | 14.5 | 0.00 | 0.00 | 0.00 | 81 | 1012.7 |
| 20260505215842 | 10 | 82 | 8.0 | 9.7 | 0.00 | 0.00 | 0.00 | 81 | 1012.7 |
| 20260505215340 | 10 | 18 | 19.3 | 22.5 | 0.00 | 0.00 | 0.00 | 81 | 1012.7 |
| 20260505214837 | 10 | 64 | 14.5 | 22.5 | 0.00 | 0.00 | 0.00 | 80 | 1012.7 |
| 20260505214335 | 10 | 20 | 12.9 | 14.5 | 0.00 | 0.00 | 0.00 | 80 | 1012.7 |
| 20260505213833 | 10 | 354 | 9.7 | 16.1 | 0.00 | 0.00 | 0.00 | 80 | 1012.7 |
| 20260505212828 | 10 | 51 | 16.1 | 19.3 | 0.00 | 0.00 | 0.00 | 80 | 1012.7 |
| 20260505212325 | 10 | 14 | 9.7 | 11.3 | 0.00 | 0.00 | 0.00 | 80 | 1012.7 |
| 20260505211320 | 10 | 37 | 11.3 | 14.5 | 0.00 | 0.00 | 0.00 | 81 | 1012.7 |
| 20260505210818 | 10 | 38 | 14.5 | 14.5 | 0.00 | 0.00 | 0.00 | 80 | 1012.7 |
| 20260505210316 | 10 | 51 | 11.3 | 12.9 | 0.00 | 0.00 | 0.00 | 80 | 1012.7 |
| 20260505205814 | 10 | 38 | 6.4 | 9.7 | 0.00 | 0.00 | 0.00 | 81 | 1012.7 |
| 20260505205311 | 10 | 46 | 8.0 | 19.3 | 0.00 | 0.00 | 0.00 | 80 | 1012.7 |
| 20260505204809 | 10 | 0 | 14.5 | 17.7 | 0.00 | 0.00 | 0.00 | 80 | 1012.7 |
| 20260505204307 | 10 | 30 | 14.5 | 17.7 | 0.00 | 0.00 | 0.00 | 80 | 1012.7 |
| 20260505203804 | 10 | 28 | 14.5 | 14.5 | 0.00 | 0.00 | 0.00 | 80 | 1012.7 |
| 20260505203302 | 10 | 38 | 8.0 | 9.7 | 0.00 | 0.00 | 0.00 | 80 | 1012.7 |
| 20260505202759 | 10 | 19 | 14.5 | 16.1 | 0.00 | 0.00 | 0.00 | 79 | 1012.7 |
| 20260505202258 | 10 | 31 | 12.9 | 12.9 | 0.00 | 0.00 | 0.00 | 79 | 1012.7 |
| 20260505201755 | 10 | 45 | 11.3 | 22.5 | 0.00 | 0.00 | 0.00 | 79 | 1012.7 |
| 20260505201253 | 10 | 29 | 11.3 | 17.7 | 0.00 | 0.00 | 0.00 | 79 | 1012.3 |
| 20260505200751 | 10 | 72 | 14.5 | 20.9 | 0.00 | 0.00 | 0.00 | 78 | 1012.3 |
| 20260505200248 | 10 | 77 | 9.7 | 14.5 | 0.00 | 0.00 | 0.00 | 78 | 1012.3 |
| 20260505195746 | 10 | 25 | 9.7 | 14.5 | 0.00 | 0.00 | 0.00 | 78 | 1012.3 |
| 20260505195243 | 10 | 20 | 14.5 | 17.7 | 0.00 | 0.00 | 0.00 | 77 | 1012.3 |
| 20260505194741 | 10 | 25 | 9.7 | 11.3 | 0.00 | 0.00 | 0.00 | 76 | 1012.3 |
| 20260505194238 | 10 | 300 | 12.9 | 14.5 | 0.00 | 0.00 | 0.00 | 75 | 1012.3 |
| 20260505193736 | 10 | 44 | 6.4 | 11.3 | 0.00 | 0.00 | 0.00 | 75 | 1012.3 |
| 20260505193234 | 11 | 55 | 14.5 | 14.5 | 0.00 | 0.00 | 0.00 | 75 | 1012.0 |
| 20260505192731 | 11 | 35 | 19.3 | 19.3 | 0.00 | 0.00 | 0.00 | 74 | 1012.0 |
| 20260505192229 | 11 | 53 | 12.9 | 14.5 | 0.00 | 0.00 | 0.00 | 74 | 1012.0 |
| 20260505191726 | 11 | 84 | 14.5 | 24.1 | 0.00 | 0.00 | 0.00 | 74 | 1012.0 |
| 20260505191224 | 11 | 73 | 9.7 | 11.3 | 0.00 | 0.00 | 0.00 | 73 | 1012.0 |
| 20260505190722 | 11 | 77 | 11.3 | 22.5 | 0.00 | 0.00 | 0.00 | 73 | 1012.0 |
| 20260505190219 | 11 | 56 | 11.3 | 19.3 | 0.00 | 0.00 | 0.00 | 73 | 1012.0 |
| 20260505185214 | 11 | 31 | 9.7 | 17.7 | 0.00 | 0.00 | 0.00 | 72 | 1012.0 |
| 20260505184209 | 11 | 42 | 11.3 | 11.3 | 0.00 | 0.00 | 0.00 | 71 | 1011.7 |
| 20260505183706 | 11 | 31 | 16.1 | 16.1 | 0.00 | 0.00 | 0.00 | 70 | 1011.7 |
| 20260505183204 | 11 | 48 | 14.5 | 20.9 | 0.00 | 0.00 | 0.00 | 70 | 1011.7 |
| 20260505182701 | 12 | 11 | 14.5 | 19.3 | 0.00 | 0.00 | 0.00 | 70 | 1011.7 |
| 20260505182158 | 12 | 30 | 12.9 | 37.0 | 0.00 | 0.00 | 0.00 | 69 | 1011.7 |
| 20260505181656 | 12 | 72 | 17.7 | 27.4 | 0.00 | 0.00 | 0.00 | 69 | 1011.7 |
| 20260505181154 | 12 | 90 | 14.5 | 19.3 | 0.00 | 0.00 | 0.00 | 69 | 1011.7 |
| 20260505180652 | 12 | 72 | 14.5 | 27.4 | 0.00 | 0.00 | 0.00 | 69 | 1011.7 |
| 20260505180149 | 12 | 33 | 22.5 | 37.0 | 0.00 | 0.00 | 0.00 | 68 | 1011.7 |
| 20260505175647 | 12 | 29 | 14.5 | 19.3 | 0.00 | 0.00 | 0.00 | 70 | 1012.0 |
| 20260505175144 | 12 | 29 | 17.7 | 24.1 | 0.00 | 0.00 | 0.00 | 69 | 1011.7 |
| 20260505174140 | 12 | 43 | 14.5 | 16.1 | 0.00 | 0.00 | 0.00 | 69 | 1011.7 |
| 20260505173637 | 12 | 52 | 11.3 | 20.9 | 0.00 | 0.00 | 0.00 | 69 | 1011.7 |
| 20260505173135 | 12 | 57 | 11.3 | 11.3 | 0.00 | 0.00 | 0.00 | 70 | 1011.7 |
| 20260505172130 | 12 | 37 | 12.9 | 19.3 | 0.00 | 0.00 | 0.00 | 68 | 1011.7 |
| 20260505171627 | 12 | 64 | 14.5 | 19.3 | 0.00 | 0.00 | 0.00 | 68 | 1011.7 |
| 20260505171125 | 12 | 36 | 9.7 | 17.7 | 0.00 | 0.00 | 0.00 | 67 | 1011.7 |
| 20260505170623 | 12 | 6 | 17.7 | 19.3 | 0.00 | 0.00 | 0.00 | 66 | 1011.7 |
| 20260505170121 | 12 | 11 | 14.5 | 19.3 | 0.00 | 0.00 | 0.00 | 64 | 1011.7 |
| 20260505165618 | 12 | 36 | 14.5 | 22.5 | 0.00 | 0.00 | 0.00 | 64 | 1011.7 |
| 20260505164613 | 12 | 65 | 19.3 | 20.9 | 0.00 | 0.00 | 0.00 | 63 | 1011.7 |
| 20260505164111 | 12 | 44 | 17.7 | 24.1 | 0.00 | 0.00 | 0.00 | 62 | 1011.7 |
| 20260505163609 | 12 | 21 | 12.9 | 16.1 | 0.00 | 0.00 | 0.00 | 63 | 1011.7 |
| 20260505163107 | 12 | 72 | 16.1 | 16.1 | 0.00 | 0.00 | 0.00 | 64 | 1011.7 |
| 20260505162604 | 12 | 49 | 22.5 | 22.5 | 0.00 | 0.00 | 0.00 | 62 | 1011.7 |
| 20260505162102 | 12 | 39 | 22.5 | 30.6 | 0.00 | 0.00 | 0.00 | 63 | 1011.7 |
| 20260505161057 | 12 | 97 | 14.5 | 24.1 | 0.00 | 0.00 | 0.00 | 65 | 1011.7 |
| 20260505160555 | 12 | 45 | 11.3 | 19.3 | 0.00 | 0.00 | 0.00 | 66 | 1011.7 |
| 20260505153039 | 12 | 52 | 19.3 | 19.3 | 0.00 | 0.00 | 0.00 | 67 | 1011.7 |
| 20260505152537 | 12 | 66 | 22.5 | 27.4 | 0.00 | 0.00 | 0.00 | 65 | 1011.7 |
| 20260505152034 | 12 | 0 | 22.5 | 27.4 | 0.00 | 0.00 | 0.00 | 65 | 1011.7 |
| 20260505151531 | 12 | 67 | 12.9 | 27.4 | 0.00 | 0.00 | 0.00 | 64 | 1011.7 |
| 20260505151029 | 12 | 67 | 20.9 | 27.4 | 0.00 | 0.00 | 0.00 | 64 | 1011.7 |
| 20260505150527 | 12 | 41 | 19.3 | 30.6 | 0.00 | 0.00 | 0.00 | 66 | 1011.7 |